Torna al catalogo

FENGYUN 1C DEB

AttivoSSO
NORAD 37420·DEBRIS·🇨🇳 China

Lanciato May 10, 1999 da Taiyuan Satellite Launch Center

Loading…

Prossimi Passaggi (prossime 24 ore)

TLE

ObsoletoSource: Space-Track

Epoca: Sep 1, 2026, 05:20 UTC

1 37420U 99025EGN 26244.22247706  .00000084  00000-0  85058-4 0  9991
2 37420  98.8792 231.2662 0071971 264.0665  95.2293 13.99980753634374

Traccia FENGYUN 1C DEB in tempo reale con AllMySat

Download on the App Store